St. Thomas, VI

1:44 AM AST on February 21, 2018 (GMT -0400)
King

Weather History for TIST - April, 2014

Change the Weather History Date:

Wednesday, April 30, 2014

  Actual Average Record
Temperature  
Mean Temperature 83 °F 81 °F  
Max Temperature 89 °F 87 °F 96 °F (1992)
Min Temperature 77 °F 75 °F 70 °F (1986)
Degree Days  
Heating Degree Days 0 0  
Month to date heating degree days 0 0  
Since 1 July heating degree days 0 0  
Cooling Degree Days 18 16  
Month to date cooling degree days 470 469  
Year to date cooling degree days 1727 1728  
Growing Degree Days 33 (Base 50)    
Moisture  
Dew Point 71 °F    
Average Humidity 69    
Maximum Humidity 85    
Minimum Humidity 53    
Precipitation  
Precipitation 0.00 in 0.12 in 1.31 in (1963)
Month to date precipitation 2.17 2.74  
Year to date precipitation 6.56 7.97  
Sea Level Pressure  
Sea Level Pressure 30.00 in    
Wind  
Wind Speed 10 mph (East)    
Max Wind Speed 17 mph    
Max Gust Speed 23 mph    
Visibility 10 miles    
Events      
T = Trace of Precipitation, MM = Missing Value Source: NWS Daily Summary

Daily Weather History Graph

Daily Weather History Graph

Search for Another Location

Airport or City:

Trip Planner

Search our weather history database for the weather conditions in past years. The results will help you decide how hot, cold, wet, or windy it might be!

Date:

Astronomy

Apr. 30, 2014 Rise Set
Actual Time 5:53 AM AST 6:41 PM AST
Civil Twilight 5:30 AM AST 7:03 PM AST
Nautical Twilight 5:03 AM AST 7:30 PM AST
Astronomical Twilight 4:36 AM AST 7:57 PM AST
Moon 6:55 AM AST (4/30) 8:09 PM AST (4/30)
Length of Visible Light 13h 33m
Length of Day
12h 47m
New Moon, 2% of the Moon is Illuminated
Apr 30
New Moon
May 6
First Quarter
May 14
Full
May 21
Last Quarter
May 28
New

Hourly Weather History & Observations

Time (AST) Temp. Heat Index Dew Point Humidity Pressure Visibility Wind Dir Wind Speed Gust Speed Precip Events Conditions
12:53 AM 78.1 °F - 72.0 °F 81% 30.01 in 10.0 mi East 6.9 mph - N/A   Clear
1:53 AM 78.1 °F - 72.0 °F 81% 29.99 in 10.0 mi East 4.6 mph - N/A   Clear
2:53 AM 78.1 °F - 72.0 °F 81% 29.99 in 10.0 mi East 5.8 mph - N/A   Clear
3:53 AM 78.1 °F - 73.0 °F 84% 29.98 in 10.0 mi East 6.9 mph - N/A   Partly Cloudy
4:53 AM 78.1 °F - 71.1 °F 79% 29.99 in 10.0 mi East 8.1 mph - N/A   Clear
6:53 AM 80.1 °F 83.8 °F 72.0 °F 76% 30.02 in 10.0 mi East 5.8 mph - N/A   Clear
7:53 AM 82.9 °F 87.5 °F 71.1 °F 67% 30.02 in 10.0 mi East 12.7 mph - N/A   Clear
8:53 AM 84.9 °F 89.4 °F 70.0 °F 61% 30.04 in 10.0 mi East 12.7 mph - N/A   Clear
9:53 AM 88.0 °F 91.4 °F 68.0 °F 51% 30.03 in 10.0 mi East 15.0 mph 20.7 mph N/A   Clear
10:53 AM 84.0 °F 89.6 °F 72.0 °F 67% 30.04 in 10.0 mi SSE 12.7 mph - N/A   Scattered Clouds
12:53 PM 88.0 °F 91.4 °F 68.0 °F 51% 30.02 in 10.0 mi ESE 10.4 mph 21.9 mph N/A   Mostly Cloudy
1:53 PM 88.0 °F 92.1 °F 69.1 °F 53% 29.99 in 10.0 mi SSE 12.7 mph 23.0 mph N/A   Partly Cloudy
2:53 PM 88.0 °F 93.8 °F 71.1 °F 57% 29.98 in 10.0 mi NE 11.5 mph 21.9 mph N/A   Partly Cloudy
3:53 PM 86.0 °F 89.4 °F 68.0 °F 55% 29.97 in 10.0 mi ENE 9.2 mph 19.6 mph N/A   Clear
4:53 PM 82.9 °F 87.5 °F 71.1 °F 67% 29.96 in 10.0 mi ENE 10.4 mph - N/A   Clear
5:53 PM 82.0 °F 86.7 °F 72.0 °F 71% 29.96 in 10.0 mi East 10.4 mph - N/A   Clear
6:53 PM 81.0 °F 85.2 °F 72.0 °F 74% 29.98 in 10.0 mi East 10.4 mph - N/A   Clear
7:53 PM 80.1 °F 83.8 °F 72.0 °F 76% 30.00 in 10.0 mi ENE 6.9 mph - N/A   Clear
8:53 PM 80.1 °F 83.8 °F 72.0 °F 76% 30.01 in 10.0 mi East 8.1 mph - N/A   Clear
9:53 PM 79.0 °F - 72.0 °F 79% 30.01 in 10.0 mi ENE 8.1 mph - N/A   Clear
10:53 PM 79.0 °F - 72.0 °F 79% 30.01 in 10.0 mi East 10.4 mph - N/A   Clear
11:53 PM 79.0 °F - 72.0 °F 79% 30.00 in 10.0 mi East 12.7 mph - N/A   Clear